Location: Banska Bystrica
(0.0000°N, 19.1500°E)
Time: 15:46:53
(UTC+02:00)

Cosmos 2221 Rocket - Pass Details

Date: 19 February 2019
Orbit: 621 x 647 km, 82.5° (Epoch: 18 October)

Event Time Altitude Azimuth Distance (km) Brightness Sun altitude
Rises 19:29:48 0° 356° (N) 2,940 7.0 -22.7°
Reaches altitude 10° 19:32:02 10° 356° (N) 2,035 6.1 -23.2°
Maximum altitude 19:36:33 90° 53° (NE) 650 3.5 -24.3°
Drops below altitude 10° 19:41:07 10° 176° (S) 2,046 6.3 -25.4°
Sets 19:43:22 0° 176° (S) 2,957 7.2 -26.0°
